Weather History for Keahole Point, HI

Change the Weather History Date:

Tuesday, November 20, 2012

  Actual Average Record
Temperature  
Mean Temperature 77 °F -  
Max Temperature 82 °F 81 °F 90 °F (1986)
Min Temperature 72 °F 70 °F 68 °F (1989)
Cooling Degree Days 12    
Growing Degree Days 27 (Base 50)    
Moisture  
Dew Point 66 °F    
Average Humidity 66    
Maximum Humidity 74    
Minimum Humidity 56    
Precipitation  
Precipitation 0.00 in - - ()
Sea Level Pressure  
Sea Level Pressure 29.99 in    
Wind  
Wind Speed 4 mph (SSE)    
Max Wind Speed 10 mph    
Max Gust Speed -    
Visibility 10 miles    
Events      
Averages and records for this station are not official NWS values.
T = Trace of Precipitation, MM = Missing Value Source: NWS Daily Summary

Daily Weather History Graph

Daily Weather History Graph

Search for Another Location

Airport:

Trip Planner

Search our weather history database for the weather conditions in past years. The results will help you decide how hot, cold, wet, or windy it might be!

Date:

Astronomy

Nov. 20, 2012 Rise Set
Actual Time 6:35 AM HST 5:43 PM HST
Civil Twilight 6:12 AM HST 6:07 PM HST
Nautical Twilight 5:45 AM HST 6:34 PM HST
Astronomical Twilight 5:19 AM HST 7:00 PM HST
Moon 12:44 PM HST (11/20) No Moon Set
Length of Visible Light 11h 54m
Length of Day
11h 07m
First Quarter, 53% of the Moon is Illuminated
Nov 20
First Quarter
Nov 28
Full
Dec 6
Last Quarter
Dec 12
New
Dec 19
First Quarter

Hourly Weather History & Observations

Time (HST) Temp. Heat Index Dew Point Humidity Pressure Visibility Wind Dir Wind Speed Gust Speed Precip Events Conditions
12:53 AM 77.0 °F - 66.9 °F 71% 30.04 in 10.0 mi South 3.5 mph - N/A   Overcast
1:53 AM 77.0 °F - 66.0 °F 69% 30.01 in 10.0 mi Calm Calm - N/A   Mostly Cloudy
2:53 AM 75.9 °F - 66.9 °F 74% 30.00 in 10.0 mi East 5.8 mph - N/A   Clear
3:53 AM 75.0 °F - 66.0 °F 73% 30.00 in 10.0 mi East 3.5 mph - N/A   Clear
4:53 AM 73.9 °F - 63.0 °F 68% 29.99 in 10.0 mi Calm Calm - N/A   Clear
5:53 AM 73.0 °F - 63.0 °F 71% 29.99 in 10.0 mi Calm Calm - N/A   Clear
6:53 AM 72.0 °F - 62.1 °F 71% 30.00 in 10.0 mi ESE 3.5 mph - N/A   Clear
7:53 AM 75.9 °F - 63.0 °F 64% 30.02 in 10.0 mi SE 5.8 mph - N/A   Clear
8:53 AM 79.0 °F - 66.0 °F 64% 30.02 in 10.0 mi South 9.2 mph - N/A   Clear
9:53 AM 80.1 °F 82.1 °F 66.0 °F 62% 30.04 in 10.0 mi South 5.8 mph - N/A   Clear
10:53 AM 82.9 °F 85.0 °F 66.0 °F 56% 30.03 in 10.0 mi South 8.1 mph - N/A   Clear
11:53 AM 81.0 °F 83.8 °F 68.0 °F 65% 30.00 in 10.0 mi South 10.4 mph - N/A   Clear
12:53 PM 80.1 °F 82.7 °F 68.0 °F 67% 29.98 in 10.0 mi SSW 8.1 mph - N/A   Clear
1:53 PM 81.0 °F 83.3 °F 66.9 °F 62% 29.94 in 10.0 mi SSW 6.9 mph - N/A   Clear
2:53 PM 80.1 °F 82.3 °F 66.9 °F 64% 29.93 in 10.0 mi SW 8.1 mph - N/A   Clear
3:53 PM 79.0 °F - 66.0 °F 64% 29.94 in 10.0 mi SW 5.8 mph - N/A   Clear
4:53 PM 79.0 °F - 66.0 °F 64% 29.94 in 10.0 mi WSW 5.8 mph - N/A   Partly Cloudy
5:53 PM 79.0 °F - 64.9 °F 62% 29.96 in 10.0 mi South 3.5 mph - N/A   Clear
6:53 PM 78.1 °F - 66.0 °F 66% 29.97 in 10.0 mi South 3.5 mph - N/A   Clear
7:53 PM 78.1 °F - 66.9 °F 68% 29.98 in 10.0 mi SE 4.6 mph - N/A   Clear
8:53 PM 78.1 °F - 66.0 °F 66% 29.99 in 10.0 mi ESE 5.8 mph - N/A   Clear
9:53 PM 77.0 °F - 66.0 °F 69% 29.99 in 10.0 mi SE 8.1 mph - N/A   Clear
10:53 PM 77.0 °F - 66.0 °F 69% 29.98 in 10.0 mi SE 4.6 mph - N/A   Clear
11:53 PM 77.0 °F - 64.9 °F 66% 29.98 in 10.0 mi SE 3.5 mph - N/A   Clear